Location: Buckland
(65.9785°N, 161.1281°W)
Time: 04:15:44
(UTC+00:00)

Transit 4A - Pass Details

Date: 01 December 2020
Orbit: 864 x 980 km, 66.8° (Epoch: 26 January)

Event Time Altitude Azimuth Distance (km) Brightness Sun altitude
Rises 18:32:52 0° 197° (SSW) 3,657 11.3 -8.9°
Reaches altitude 10° 18:35:36 10° 189° (S) 2,722 10.7 -8.6°
Maximum altitude 18:41:19 36° 126° (SE) 1,503 9.9 -8.2°
Drops below altitude 10° 18:47:05 10° 62° (ENE) 2,742 10.7 -7.7°
Sets 18:49:50 0° 54° (NE) 3,686 11.2 -7.5°
